星链-34424 (STARLINK-34424)

导读

STARLINK-34424是美国于2025年6月8日发射的星链卫星,星链是SpaceX打造的低轨卫星互联网星座计划,旨在为全球提供高速低延迟互联网络,该卫星入轨后将承担为地面用户提供互联网接入服务,进一步扩展星链星座的全球覆盖能力与服务容量。

基本信息
目录编号:
64295
目录名称:
STARLINK-34424
国际标识:
2025-123E
轨道中心:
EARTH
卫星名称:
星链-34424
卫星全名:
星链-34424 (STARLINK-34424)
卫星状态:
在轨 (已飞行453 天)
发射日期:
2025-06-08 UTC
国别 :
美国 (US)
星等 :
--
轨道信息
数据来源 国际轨道数据
星历时间: 2026-09-02T22:00:02+0800
1天前
查看轨道信息
半长轴: 6861.064km
偏心率: 0.0003653
轨道倾角: 69.998°
近地点辐角 248.143°
升交点赤经 108.248°
平近点角 354.312°
近地点: 480.42km
远地点: 485.434km
周期: 94.264分钟
每日圈数: 15.276208
详细信息
固有亮度:
5
最大亮度:
2.5
卫星平台:
Starlink V1.0
覆盖范围:
全球
运营商:
太空探索技术公司
运营商所在国:
美国
制造商(研发单位):
太空探索技术公司
制造商所在国:
美国
使用方式:
暂无
卫星简介
Starlink 计划是 SpaceX 推出的全球卫星互联网项目,通过发射低轨道卫星,为全球尤其是偏远地区提供高速、低延迟的互联网服务。自 2019 年起,Starlink 已部署数千颗卫星,旨在缩小全球数字鸿沟,推动互联网普及。该项目还为军事、航空等行业提供通信支持,带来广泛经济效益。
2D轨道图
3D轨道图
轨道高度分析图
轨道倾角分析图
轨道综合分析图
查看轨道综合分析图
交会数据列表
事件ID 空间交会对象 最接近时刻(TCA) 交会距离 交会风险概率(CRP) 交会风险指数(CRI) 操作
CDM_260902-091206-429506-630521
OBJECT N (66305)
2026-09-02T
09:12:30+0000
0.882 km
远距离
2.349887E-5 中风险 0.62
CDM_260903-121206-429506-923321
2026-09-03T
12:12:13+0000
1.528 km
极远距离
6.335144E-6 低风险 0.51
CDM_260903-222606-429506-476421
2026-09-03T
22:26:36+0000
1.406 km
极远距离
3.313472E-6 低风险 0.45
CDM_260903-233004-750806-429521
HAWK-2B (47508)
2026-09-03T
23:30:45+0000
2.040 km
极远距离
2.761663E-6 低风险 0.44
CDM_260903-045203-560206-429521
2026-09-03T
04:52:01+0000
2.078 km
极远距离
2.459219E-6 低风险 0.43
CDM_260903-104005-377306-429521
2026-09-03T
10:40:33+0000
2.238 km
极远距离
1.699775E-6 低风险 0.4
CDM_260902-121405-737606-429521
2026-09-02T
12:14:31+0000
2.612 km
极远距离
1.4602E-6 低风险 0.38
CDM_260903-163806-429506-536721
2026-09-03T
16:38:33+0000
2.132 km
极远距离
1.371601E-6 低风险 0.38
CDM_260902-090605-737606-429521
2026-09-02T
09:06:07+0000
2.826 km
极远距离
1.297925E-6 低风险 0.37
CDM_260903-141405-245606-429521
2026-09-03T
14:14:31+0000
2.927 km
极远距离
1.202065E-6 低风险 0.37